Showing default

NANOFF B, 58755

Orbit data source: Space-Track

NANOFF B, 58755 is a payload satellite owned by TUB (DE) in SSO that was launched on Fri, 01 Dec 2023 UTC via an FALCON 9 launch vehicle from the Air Force Western Test Range (AFWTR). Payload-class satellites include a variety of spacecraft equipped with specific instruments for various scientific and technological missions. These include communications satellites like Starlink; space stations such as the ISS; scientific satellites like the Hubble; Earth observation satellites from companies like Planet Labs, Umbra, and HawkEye 360; GPS; miniature CubeSats for education and research; and military/defense satellites.

Loading next visibility...
Identifier
58755, 2023-185S
Orbit
SSO
Country
Flag of DEDE / GER
Related business
Manufacturer
TUB
Mission
Operational Amateur Technology
Bus & Motor
CUBESAT 2U, Unknown motor
Mass
2.7 kg wet, 2.7 kg dry
Launch date (UTC)
2023-12-01 (3 years ago)
Launch vehicle
FALCON 9
Launch site
Air Force Western Test Range (AFWTR)
Object type
Payload
Rocket body
Debris
Shape & HBR
Box + 2 Pan, 0.3 m
Radar Cross Section
0.046 m², Medium (>0.1 m² and < 1m²)

Expand to show TLE details & history
Last TLE update: 1 day ago

TLE from 1 day ago
0 NANOFF B
1 58755U 23185S   26207.42344278  .00003506  00000-0  20467-3 0  9996
2 58755  97.5246 274.3451 0012899 163.0004 197.1661 15.12513829139803
Epoch: 2026-07-26T10:09Z
TLE epoch observation values (Epoch: 2026-07-26T10:09:45.456Z)
Latitude
-0.00005°
Longitude
177.78412°
Altitude
540.128 km
Speed
7.588 km/s
True Right ascension
18h 17m 22s
True Declination
0° 00' 00"
Sunlit
Object was in full shadow at epoch
Visualization orbit readout
Latitude
Unknown
Longitude
Unknown
Altitude
Unknown
Speed
Unknown
Apparent Right ascension
Unknown
Apparent Declination
Unknown
Sunlit
N/A
Visualization observer readout
Local Sidereal Time
01:11:18
Azimuth
Unknown
Elevation
Unknown
Doppler factor
Unknown
Orbital elements
Apogee altitude
534.423 km
Perigee altitude
516.613 km
Semi-major axis
6,903.655 km
Eccentricity
0.00129
Inclination
97.5246°
RAAN
274.3451°
Arg. of periapsis
163.0004°
True anomaly
197.12254°
Mean anomaly
197.1661°
Eccentric anomaly
197.14431°
Mean motion
3.78377 °/min
Orbital period
95.14 mins
BSTAR
0.00020467
Loading maneuver chart data...
Computing Atmospheric mass density...
Loading historical data...
Loading historical data...
Loading historical data...
Loading historical data...
Loading historical data...
Loading historical data...
Loading historical data...

Documentation

Showing up to 5 results
|